TimeMST,TemperatureF,Dew PointF,Humidity,Sea Level PressureIn,VisibilityMPH,Wind Direction,Wind SpeedMPH,Gust SpeedMPH,PrecipitationIn,Events,Conditions,WindDirDegrees,DateUTC
12:53 AM,17.1,15.1,92,30.09,9.0,SSW,4.6,-,0.00,,Overcast,200,2013-12-22 07:53:00
1:53 AM,15.1,12.0,88,30.10,10.0,Calm,Calm,-,N/A,,Mostly Cloudy,0,2013-12-22 08:53:00
2:53 AM,16.0,12.9,88,30.10,10.0,Variable,4.6,-,N/A,,Mostly Cloudy,0,2013-12-22 09:53:00
3:53 AM,10.0,9.0,95,30.10,10.0,Calm,Calm,-,N/A,,Mostly Cloudy,0,2013-12-22 10:53:00
4:53 AM,8.1,5.0,87,30.12,10.0,Calm,Calm,-,N/A,,Scattered Clouds,0,2013-12-22 11:53:00
5:53 AM,3.9,1.9,91,30.15,10.0,WSW,5.8,-,N/A,,Mostly Cloudy,240,2013-12-22 12:53:00
6:53 AM,8.1,5.0,87,30.12,10.0,South,5.8,-,N/A,,Mostly Cloudy,190,2013-12-22 13:53:00
7:53 AM,5.0,1.9,87,30.14,7.0,SW,5.8,-,N/A,,Overcast,220,2013-12-22 14:53:00
8:53 AM,9.0,6.1,88,30.14,10.0,South,6.9,-,N/A,,Mostly Cloudy,190,2013-12-22 15:53:00
9:53 AM,12.0,9.0,88,30.13,10.0,South,5.8,-,N/A,,Overcast,190,2013-12-22 16:53:00
10:53 AM,12.0,8.1,84,30.16,10.0,WNW,5.8,-,N/A,,Partly Cloudy,290,2013-12-22 17:53:00
11:53 AM,15.1,10.0,80,30.17,10.0,WSW,4.6,-,N/A,,Mostly Cloudy,250,2013-12-22 18:53:00
12:50 PM,19.4,14.0,80,30.01,10.0,Calm,Calm,-,N/A,,Mostly Cloudy,0,2013-12-22 19:50:00
12:53 PM,19.9,14.0,78,30.18,10.0,Calm,Calm,-,N/A,,Mostly Cloudy,0,2013-12-22 19:53:00
1:00 PM,21.0,15.1,78,30.01,10.0,Calm,Calm,-,N/A,,Mostly Cloudy,0,2013-12-22 20:00:00
1:21 PM,21.0,16.0,81,30.02,1.8,Calm,Calm,-,0.00,Snow,Light Snow,0,2013-12-22 20:21:00
1:43 PM,21.9,17.1,82,30.03,0.8,North,12.7,-,0.00,Snow,Light Snow,350,2013-12-22 20:43:00
1:53 PM,21.9,17.1,82,30.20,0.8,NNW,9.2,-,0.01,Snow,Light Snow,340,2013-12-22 20:53:00
2:43 PM,21.0,18.0,88,30.05,0.5,NNW,5.8,-,0.00,Fog-Snow,Snow,330,2013-12-22 21:43:00
2:53 PM,21.0,17.1,85,30.22,0.8,NW,5.8,-,0.01,Snow,Light Snow,320,2013-12-22 21:53:00
3:00 PM,21.0,17.1,85,30.06,1.2,NNW,5.8,-,0.00,Snow,Light Snow,330,2013-12-22 22:00:00
3:53 PM,21.0,17.1,85,30.29,1.5,Calm,Calm,-,0.00,Snow,Light Snow,0,2013-12-22 22:53:00
4:10 PM,21.0,17.1,85,30.10,2.0,North,5.8,-,0.00,Snow,Light Snow,350,2013-12-22 23:10:00
4:42 PM,19.9,16.0,85,30.12,1.5,North,4.6,-,0.01,Snow,Light Snow,10,2013-12-22 23:42:00
4:53 PM,19.0,16.0,88,30.33,1.5,North,4.6,-,0.01,Snow,Light Snow,360,2013-12-22 23:53:00
5:04 PM,19.0,16.0,88,30.13,2.5,Calm,Calm,-,0.00,Snow,Light Snow,0,2013-12-23 00:04:00
5:44 PM,19.0,16.0,88,30.15,1.8,Calm,Calm,-,0.00,Snow,Light Snow,0,2013-12-23 00:44:00
5:53 PM,18.0,15.1,88,30.38,1.5,NE,3.5,-,0.00,Snow,Light Snow,40,2013-12-23 00:53:00
6:06 PM,18.0,15.1,88,30.15,2.0,NE,4.6,-,0.00,Snow,Light Snow,40,2013-12-23 01:06:00
6:10 PM,18.0,15.1,88,30.16,1.8,NNE,4.6,-,0.00,Snow,Light Snow,30,2013-12-23 01:10:00
6:21 PM,18.0,15.1,88,30.16,2.0,NNE,4.6,-,0.00,Snow,Light Snow,30,2013-12-23 01:21:00
6:40 PM,18.0,15.1,88,30.17,1.8,ENE,3.5,-,0.01,Snow,Light Snow,60,2013-12-23 01:40:00
6:53 PM,18.0,15.1,88,30.38,1.5,East,3.5,-,0.01,Snow,Light Snow,80,2013-12-23 01:53:00
7:15 PM,18.0,15.1,88,30.18,2.0,East,4.6,-,0.00,Snow,Light Snow,80,2013-12-23 02:15:00
7:38 PM,18.0,15.1,88,30.19,1.5,East,4.6,-,0.00,Snow,Light Snow,90,2013-12-23 02:38:00
7:53 PM,18.0,15.1,88,30.41,1.8,East,6.9,-,0.00,Snow,Light Snow,100,2013-12-23 02:53:00
8:46 PM,17.1,14.0,88,30.21,2.0,East,4.6,-,0.01,Snow,Light Snow,100,2013-12-23 03:46:00
8:53 PM,17.1,14.0,88,30.43,2.0,East,4.6,-,0.01,Snow,Light Snow,90,2013-12-23 03:53:00
9:33 PM,17.1,14.0,88,30.21,4.0,SE,3.5,-,0.01,Snow,Light Snow,130,2013-12-23 04:33:00
9:53 PM,16.0,14.0,92,30.43,5.0,SE,4.6,-,0.01,Snow,Light Snow,130,2013-12-23 04:53:00
10:53 PM,16.0,12.9,88,30.43,9.0,East,4.6,-,0.00,Snow,Light Snow,100,2013-12-23 05:53:00
11:53 PM,16.0,12.9,88,30.42,10.0,East,4.6,-,0.00,,Overcast,100,2013-12-23 06:53:00